Stephenville, TX

9:12 AM CDT on August 29, 2016 (GMT -0500)
Clark Municipal

Weather History for KSEP - August, 2014

Change the Weather History Date:

Monday, August 4, 2014

  Actual Average Record
Temperature  
Mean Temperature 80 °F -  
Max Temperature 93 °F 93 °F 105 °F (2011)
Min Temperature 67 °F 70 °F 60 °F (1925)
Cooling Degree Days 14    
Growing Degree Days 30 (Base 50)    
Moisture  
Dew Point 63 °F    
Average Humidity 59    
Maximum Humidity 87    
Minimum Humidity 30    
Precipitation  
Precipitation 0.00 in - - ()
Sea Level Pressure  
Sea Level Pressure 30.10 in    
Wind  
Wind Speed 3 mph (ENE)    
Max Wind Speed 12 mph    
Max Gust Speed 16 mph    
Visibility 10 miles    
Events      
Averages and records for this station are not official NWS values.
T = Trace of Precipitation, MM = Missing Value Source: NWS Daily Summary

Daily Weather History Graph

Daily Weather History Graph

Search for Another Location

Airport or City:

Trip Planner

Search our weather history database for the weather conditions in past years. The results will help you decide how hot, cold, wet, or windy it might be!

Date:

Astronomy

Aug. 04, 2014 Rise Set
Actual Time 6:49 AM CDT 8:27 PM CDT
Civil Twilight 6:23 AM CDT 8:53 PM CDT
Nautical Twilight 5:51 AM CDT 9:25 PM CDT
Astronomical Twilight 5:17 AM CDT 9:59 PM CDT
Moon 2:42 PM CDT (8/4) 12:54 AM CDT (8/4)
Length of Visible Light 14h 30m
Length of Day
13h 37m
First Quarter, 57% of the Moon is Illuminated
Aug 4
First Quarter
Aug 10
Full
Aug 17
Last Quarter
Aug 25
New
Sep 2
First Quarter

Hourly Weather History & Observations

Time (CDT) Temp. Heat Index Dew Point Humidity Pressure Visibility Wind Dir Wind Speed Gust Speed Precip Events Conditions
12:15 AM 74.8 °F - 62.2 °F 65% 30.12 in 10.0 mi East 4.6 mph - N/A   Clear
12:35 AM 74.8 °F - 63.0 °F 66% 30.12 in 10.0 mi East 3.5 mph - N/A   Clear
12:55 AM 74.7 °F - 63.0 °F 67% 30.12 in 10.0 mi Calm Calm - N/A   Clear
1:15 AM 74.7 °F - 63.5 °F 68% 30.12 in 10.0 mi Calm Calm - N/A   Clear
1:35 AM 73.9 °F - 63.7 °F 70% 30.12 in 10.0 mi Calm Calm - N/A   Clear
1:55 AM 72.9 °F - 63.9 °F 73% 30.12 in 10.0 mi Calm Calm - N/A   Clear
2:15 AM 72.9 °F - 64.4 °F 75% 30.12 in 10.0 mi Calm Calm - N/A   Clear
2:35 AM 73.0 °F - 64.8 °F 75% 30.12 in 10.0 mi Calm Calm - N/A   Clear
2:55 AM 72.5 °F - 64.9 °F 77% 30.11 in 10.0 mi Calm Calm - N/A   Clear
3:15 AM 72.9 °F - 64.9 °F 76% 30.11 in 10.0 mi Calm Calm - N/A   Clear
3:35 AM 72.9 °F - 65.1 °F 77% 30.11 in 10.0 mi Calm Calm - N/A   Clear
3:55 AM 72.7 °F - 65.1 °F 77% 30.11 in 10.0 mi Calm Calm - N/A   Clear
4:15 AM 71.8 °F - 64.9 °F 79% 30.10 in 10.0 mi Calm Calm - N/A   Clear
4:35 AM 71.8 °F - 64.9 °F 79% 30.11 in 10.0 mi Calm Calm - N/A   Clear
4:55 AM 70.7 °F - 64.6 °F 81% 30.10 in 10.0 mi Calm Calm - N/A   Clear
5:15 AM 69.8 °F - 64.4 °F 83% 30.11 in 10.0 mi Calm Calm - N/A   Clear
5:35 AM 70.3 °F - 64.6 °F 82% 30.11 in 10.0 mi Calm Calm - N/A   Clear
5:55 AM 70.7 °F - 64.8 °F 81% 30.11 in 10.0 mi Calm Calm - N/A   Clear
6:15 AM 69.3 °F - 64.0 °F 83% 30.11 in 10.0 mi Calm Calm - N/A   Clear
6:35 AM 68.2 °F - 63.9 °F 86% 30.11 in 7.0 mi Calm Calm - N/A   Clear
6:55 AM 67.8 °F - 63.7 °F 87% 30.12 in 7.0 mi Calm Calm - N/A   Clear
7:15 AM 69.1 °F - 64.6 °F 86% 30.12 in 7.0 mi Calm Calm - N/A   Clear
7:35 AM 69.8 °F - 65.3 °F 86% 30.12 in 7.0 mi Calm Calm - N/A   Clear
7:55 AM 70.9 °F - 66.0 °F 85% 30.13 in 7.0 mi Calm Calm - N/A   Clear
8:15 AM 72.5 °F - 66.6 °F 82% 30.13 in 7.0 mi Calm Calm - N/A   Clear
8:35 AM 73.6 °F - 67.1 °F 80% 30.14 in 10.0 mi Calm Calm - N/A   Clear
8:55 AM 75.0 °F - 67.5 °F 77% 30.14 in 10.0 mi Calm Calm - N/A   Clear
9:15 AM 77.2 °F - 68.0 °F 73% 30.14 in 10.0 mi Calm Calm - N/A   Clear
9:35 AM 78.3 °F - 68.2 °F 71% 30.14 in 10.0 mi East 4.6 mph - N/A   Clear
9:55 AM 79.9 °F - 68.0 °F 67% 30.14 in 10.0 mi ENE 4.6 mph - N/A   Clear
10:15 AM 80.2 °F 82.8 °F 67.8 °F 66% 30.14 in 10.0 mi NE 5.8 mph - N/A   Scattered Clouds
10:35 AM 82.4 °F 85.0 °F 67.1 °F 60% 30.14 in 10.0 mi Calm Calm - N/A   Scattered Clouds
10:55 AM 83.3 °F 85.7 °F 66.4 °F 57% 30.14 in 10.0 mi East 4.6 mph - N/A   Scattered Clouds
11:15 AM 83.8 °F 86.0 °F 66.2 °F 55% 30.14 in 10.0 mi Calm Calm - N/A   Mostly Cloudy
11:35 AM 82.4 °F 84.4 °F 65.8 °F 57% 30.14 in 10.0 mi ENE 5.8 mph - N/A   Scattered Clouds
11:55 AM 84.6 °F 86.3 °F 65.1 °F 52% 30.14 in 10.0 mi East 4.6 mph - N/A   Scattered Clouds
12:15 PM 84.7 °F 85.9 °F 63.9 °F 49% 30.13 in 10.0 mi Calm Calm - N/A   Scattered Clouds
12:35 PM 83.7 °F 85.3 °F 64.8 °F 53% 30.12 in 10.0 mi NE 6.9 mph - N/A   Mostly Cloudy
12:55 PM 85.8 °F 87.1 °F 64.0 °F 48% 30.12 in 10.0 mi NNE 8.1 mph - N/A   Mostly Cloudy
1:15 PM 86.7 °F 87.5 °F 63.0 °F 45% 30.11 in 10.0 mi Calm Calm - N/A   Scattered Clouds
1:35 PM 88.7 °F 89.4 °F 62.8 °F 42% 30.11 in 10.0 mi NNE 9.2 mph - N/A   Scattered Clouds
1:55 PM 88.5 °F 88.9 °F 62.2 °F 41% 30.10 in 10.0 mi NNE 5.8 mph - N/A   Scattered Clouds
2:15 PM 89.4 °F 89.5 °F 61.5 °F 39% 30.09 in 10.0 mi North 3.5 mph - N/A   Mostly Cloudy
2:35 PM 88.0 °F 88.4 °F 62.1 °F 42% 30.09 in 10.0 mi NE 5.8 mph - N/A   Mostly Cloudy
2:55 PM 90.1 °F 90.6 °F 61.9 °F 39% 30.08 in 10.0 mi ESE 5.8 mph - N/A   Scattered Clouds
3:15 PM 91.6 °F 91.6 °F 61.0 °F 36% 30.08 in 10.0 mi East 10.4 mph - N/A   Scattered Clouds
3:35 PM 89.4 °F 89.2 °F 61.0 °F 38% 30.07 in 10.0 mi East 5.8 mph - N/A   Mostly Cloudy
3:55 PM 92.5 °F 91.6 °F 58.6 °F 32% 30.06 in 10.0 mi East 6.9 mph - N/A   Scattered Clouds
4:15 PM 90.7 °F 90.1 °F 59.9 °F 35% 30.06 in 10.0 mi NNE 9.2 mph - N/A   Clear
4:35 PM 92.8 °F 92.8 °F 60.6 °F 34% 30.05 in 10.0 mi East 9.2 mph 16.1 mph N/A   Scattered Clouds
4:55 PM 89.8 °F 88.6 °F 58.3 °F 34% 30.04 in 10.0 mi NNE 6.9 mph - N/A   Scattered Clouds
5:15 PM 92.8 °F 92.4 °F 59.5 °F 33% 30.04 in 10.0 mi NE 11.5 mph - N/A   Scattered Clouds
5:35 PM 92.1 °F 91.1 °F 58.6 °F 32% 30.04 in 10.0 mi NE 4.6 mph - N/A   Scattered Clouds
5:55 PM 92.3 °F 90.7 °F 56.8 °F 30% 30.03 in 10.0 mi Calm Calm - N/A   Clear
6:15 PM 91.9 °F 91.2 °F 58.6 °F 33% 30.02 in 10.0 mi East 10.4 mph - N/A   Clear
6:35 PM 91.4 °F 91.0 °F 60.3 °F 35% 30.02 in 10.0 mi ESE 10.4 mph - N/A   Scattered Clouds
6:55 PM 89.6 °F 88.9 °F 59.5 °F 36% 30.02 in 10.0 mi ESE 9.2 mph - N/A   Scattered Clouds
7:15 PM 90.0 °F 89.7 °F 60.3 °F 37% 30.02 in 10.0 mi East 11.5 mph 16.1 mph N/A   Scattered Clouds
7:35 PM 88.7 °F 88.6 °F 60.8 °F 39% 30.02 in 10.0 mi East 8.1 mph - N/A   Scattered Clouds
8:55 PM 83.5 °F 84.1 °F 61.7 °F 48% 30.05 in 10.0 mi East 5.8 mph - N/A   Clear
9:15 PM 82.9 °F 83.7 °F 61.7 °F 49% 30.05 in 10.0 mi East 4.6 mph - N/A   Clear
9:35 PM 82.4 °F 83.2 °F 62.1 °F 50% 30.06 in 10.0 mi East 6.9 mph - N/A   Clear
9:55 PM 81.9 °F 82.8 °F 62.2 °F 51% 30.07 in 10.0 mi East 6.9 mph - N/A   Clear
10:15 PM 82.4 °F 83.4 °F 62.6 °F 51% 30.08 in 10.0 mi East 5.8 mph - N/A   Clear
10:35 PM 81.0 °F 82.1 °F 62.6 °F 53% 30.09 in 10.0 mi East 8.1 mph - N/A   Clear
10:55 PM 80.6 °F 81.8 °F 62.8 °F 54% 30.10 in 10.0 mi East 6.9 mph - N/A   Clear
11:15 PM 80.1 °F 81.5 °F 63.1 °F 56% 30.10 in 10.0 mi East 8.1 mph - N/A   Clear
11:35 PM 79.9 °F - 63.5 °F 57% 30.11 in 10.0 mi ESE 8.1 mph - N/A   Clear
11:55 PM 79.7 °F - 63.9 °F 58% 30.11 in 10.0 mi East 8.1 mph - N/A   Clear